• In Österreich
  • Länderverzeichnis
  • Für 7 Tage
  • Wassertemperatur
  • Satellitenkarten
  • Wetterkarte
  • News
  • Widgets
  • user-avatar
    Anmelden

    Stündliche Wetter Chipata

    Heute, 20 Juni, Mittwoch

    Zeit Temperatur Niederschläge Wind Luftdruck Luftfeuchtigkeit
    00:00 +18°C° 0 mm 1 m/S 680 mmHg 68%
    01:00 +18°C° 0 mm 1 m/S 680 mmHg 71%
    02:00 +16°C° 0 mm 1 m/S 680 mmHg 73%
    03:00 +16°C° 0 mm 1 m/S 680 mmHg 75%
    04:00 +16°C° 0 mm 1 m/S 680 mmHg 76%
    05:00 +15°C° 0 mm 1 m/S 680 mmHg 78%
    06:00 +18°C° 0 mm 1 m/S 681 mmHg 72%
    07:00 +20°C° 0 mm 1 m/S 681 mmHg 66%
    08:00 +21°C° 0 mm 1 m/S 682 mmHg 61%
    09:00 +23°C° 0 mm 2 m/S 682 mmHg 53%
    10:00 +26°C° 0 mm 2 m/S 683 mmHg 44%
    11:00 +28°C° 0 mm 2 m/S 683 mmHg 36%
    12:00 +28°C° 0 mm 2 m/S 683 mmHg 36%
    13:00 +27°C° 0 mm 2 m/S 682 mmHg 36%
    14:00 +27°C° 0 mm 2 m/S 682 mmHg 35%
    15:00 +26°C° 0 mm 1 m/S 681 mmHg 38%
    16:00 +25°C° 0 mm 1 m/S 681 mmHg 41%
    17:00 +24°C° 0 mm 1 m/S 681 mmHg 44%
    18:00 +23°C° 0 mm 1 m/S 681 mmHg 47%
    19:00 +21°C° 0 mm 2 m/S 681 mmHg 50%
    20:00 +20°C° 0 mm 2 m/S 682 mmHg 53%
    21:00 +19°C° 0 mm 2 m/S 682 mmHg 56%
    22:00 +19°C° 0 mm 2 m/S 682 mmHg 59%
    23:00 +18°C° 0 mm 2 m/S 682 mmHg 62%

    Morgen, 21 Juni, Donnerstag

    Zeit Temperatur Niederschläge Wind Luftdruck Luftfeuchtigkeit
    00:00 +18°C° 0 mm 2 m/S 682 mmHg 62%
    01:00 +17°C° 0 mm 2 m/S 681 mmHg 63%
    02:00 +17°C° 0 mm 2 m/S 681 mmHg 63%
    03:00 +16°C° 0 mm 2 m/S 681 mmHg 63%
    04:00 +16°C° 0 mm 1 m/S 681 mmHg 64%
    05:00 +16°C° 0 mm 1 m/S 681 mmHg 64%
    06:00 +17°C° 0 mm 2 m/S 682 mmHg 60%
    07:00 +19°C° 0 mm 2 m/S 683 mmHg 56%
    08:00 +20°C° 0 mm 3 m/S 684 mmHg 52%
    09:00 +24°C° 0 mm 3 m/S 684 mmHg 47%
    10:00 +26°C° 0 mm 3 m/S 684 mmHg 42%
    11:00 +28°C° 0 mm 3 m/S 685 mmHg 37%
    12:00 +29°C° 0 mm 3 m/S 684 mmHg 34%
    13:00 +29°C° 0 mm 2 m/S 683 mmHg 32%
    14:00 +30°C° 0 mm 2 m/S 683 mmHg 30%
    15:00 +29°C° 0 mm 2 m/S 682 mmHg 34%
    16:00 +27°C° 0 mm 2 m/S 682 mmHg 38%
    17:00 +26°C° 0 mm 2 m/S 681 mmHg 41%
    18:00 +25°C° 0 mm 2 m/S 682 mmHg 45%
    19:00 +24°C° 0 mm 2 m/S 682 mmHg 48%
    20:00 +22°C° 0 mm 3 m/S 682 mmHg 51%
    21:00 +21°C° 0 mm 3 m/S 682 mmHg 55%
    22:00 +20°C° 0 mm 3 m/S 682 mmHg 58%
    23:00 +19°C° 0 mm 2 m/S 682 mmHg 61%

    übermorgen, 22 Juni, Freitag

    Zeit Temperatur Niederschläge Wind Luftdruck Luftfeuchtigkeit
    00:00 +19°C° 0 mm 2 m/S 682 mmHg 63%
    01:00 +18°C° 0 mm 2 m/S 682 mmHg 65%
    02:00 +18°C° 0 mm 2 m/S 681 mmHg 67%
    03:00 +17°C° 0 mm 2 m/S 681 mmHg 69%
    04:00 +17°C° 0 mm 2 m/S 681 mmHg 72%
    05:00 +16°C° 0 mm 2 m/S 681 mmHg 74%
    06:00 +18°C° 0 mm 2 m/S 682 mmHg 71%
    07:00 +19°C° 0 mm 2 m/S 683 mmHg 68%
    08:00 +20°C° 0 mm 2 m/S 684 mmHg 65%
    09:00 +23°C° 0 mm 2 m/S 684 mmHg 57%
    10:00 +26°C° 0 mm 2 m/S 684 mmHg 50%
    11:00 +28°C° 0 mm 2 m/S 685 mmHg 42%
    12:00 +28°C° 0 mm 2 m/S 684 mmHg 40%
    13:00 +28°C° 0 mm 2 m/S 683 mmHg 39%
    14:00 +29°C° 0 mm 2 m/S 682 mmHg 37%
    15:00 +28°C° 0 mm 2 m/S 682 mmHg 41%
    16:00 +27°C° 0 mm 2 m/S 681 mmHg 45%
    17:00 +26°C° 0 mm 2 m/S 681 mmHg 48%
    18:00 +24°C° 0 mm 2 m/S 681 mmHg 54%
    19:00 +23°C° 0 mm 2 m/S 682 mmHg 59%
    20:00 +21°C° 0 mm 2 m/S 682 mmHg 64%
    21:00 +20°C° 0 mm 2 m/S 682 mmHg 65%
    22:00 +19°C° 0 mm 2 m/S 682 mmHg 67%
    23:00 +19°C° 0 mm 2 m/S 682 mmHg 68%

    23 Juni, Samstag

    Zeit Temperatur Niederschläge Wind Luftdruck Luftfeuchtigkeit
    00:00 +18°C° 0 mm 2 m/S 681 mmHg 69%
    01:00 +18°C° 0 mm 2 m/S 681 mmHg 71%
    02:00 +17°C° 0 mm 2 m/S 681 mmHg 72%
    03:00 +17°C° 0 mm 2 m/S 681 mmHg 73%
    04:00 +17°C° 0 mm 2 m/S 681 mmHg 73%
    05:00 +16°C° 0 mm 2 m/S 681 mmHg 74%
    06:00 +17°C° 0 mm 2 m/S 682 mmHg 70%
    07:00 +18°C° 0 mm 2 m/S 682 mmHg 66%
    08:00 +19°C° 0 mm 3 m/S 683 mmHg 62%
    09:00 +22°C° 0 mm 3 m/S 683 mmHg 54%
    10:00 +25°C° 0 mm 3 m/S 683 mmHg 46%
    11:00 +27°C° 0 mm 3 m/S 683 mmHg 38%
    12:00 +28°C° 0 mm 2 m/S 682 mmHg 37%
    13:00 +28°C° 0 mm 2 m/S 682 mmHg 35%
    14:00 +29°C° 0 mm 2 m/S 681 mmHg 34%
    15:00 +28°C° 0 mm 2 m/S 681 mmHg 37%
    16:00 +27°C° 0 mm 2 m/S 680 mmHg 40%
    17:00 +26°C° 0 mm 2 m/S 680 mmHg 43%
    18:00 +24°C° 0 mm 2 m/S 680 mmHg 47%
    19:00 +23°C° 0 mm 2 m/S 681 mmHg 50%
    20:00 +21°C° 0 mm 2 m/S 681 mmHg 54%
    21:00 +20°C° 0 mm 2 m/S 681 mmHg 56%
    22:00 +19°C° 0 mm 2 m/S 681 mmHg 58%
    23:00 +18°C° 0 mm 2 m/S 681 mmHg 60%

    24 Juni, Sonntag

    Zeit Temperatur Niederschläge Wind Luftdruck Luftfeuchtigkeit
    00:00 +18°C° 0 mm 2 m/S 680 mmHg 62%
    01:00 +17°C° 0 mm 2 m/S 680 mmHg 64%
    02:00 +17°C° 0 mm 2 m/S 680 mmHg 65%
    03:00 +16°C° 0 mm 2 m/S 680 mmHg 68%
    04:00 +16°C° 0 mm 2 m/S 680 mmHg 70%
    05:00 +15°C° 0 mm 1 m/S 680 mmHg 72%
    06:00 +16°C° 0 mm 2 m/S 680 mmHg 69%
    07:00 +17°C° 0 mm 2 m/S 681 mmHg 66%
    08:00 +18°C° 0 mm 2 m/S 682 mmHg 64%
    09:00 +21°C° 0 mm 2 m/S 682 mmHg 56%
    10:00 +24°C° 0 mm 2 m/S 682 mmHg 48%
    11:00 +27°C° 0 mm 2 m/S 683 mmHg 40%
    12:00 +27°C° 0 mm 2 m/S 682 mmHg 39%
    13:00 +28°C° 0 mm 2 m/S 681 mmHg 37%
    14:00 +28°C° 0 mm 2 m/S 681 mmHg 36%
    15:00 +27°C° 0 mm 2 m/S 680 mmHg 40%
    16:00 +26°C° 0 mm 2 m/S 680 mmHg 44%
    17:00 +24°C° 0 mm 2 m/S 680 mmHg 48%
    18:00 +23°C° 0 mm 2 m/S 680 mmHg 56%
    19:00 +21°C° 0 mm 2 m/S 681 mmHg 63%
    20:00 +19°C° 0 mm 2 m/S 681 mmHg 71%
    21:00 +19°C° 0 mm 2 m/S 681 mmHg 74%
    22:00 +18°C° 0 mm 2 m/S 681 mmHg 78%
    23:00 +17°C° 0 mm 2 m/S 681 mmHg 82%

    25 Juni, Montag

    Zeit Temperatur Niederschläge Wind Luftdruck Luftfeuchtigkeit
    00:00 +17°C° 0 mm 2 m/S 680 mmHg 83%
    01:00 +16°C° 0 mm 2 m/S 680 mmHg 84%
    02:00 +16°C° 0 mm 2 m/S 680 mmHg 85%
    03:00 +16°C° 0 mm 2 m/S 680 mmHg 86%
    04:00 +16°C° 0 mm 2 m/S 680 mmHg 86%
    05:00 +15°C° 0 mm 2 m/S 680 mmHg 86%
    06:00 +17°C° 0 mm 2 m/S 681 mmHg 81%
    07:00 +18°C° 0 mm 2 m/S 681 mmHg 75%
    08:00 +19°C° 0 mm 2 m/S 682 mmHg 69%
    09:00 +21°C° 0 mm 2 m/S 682 mmHg 59%
    10:00 +25°C° 0 mm 2 m/S 682 mmHg 49%
    11:00 +27°C° 0 mm 2 m/S 682 mmHg 39%
    12:00 +28°C° 0 mm 2 m/S 682 mmHg 37%
    13:00 +28°C° 0 mm 2 m/S 681 mmHg 34%
    14:00 +29°C° 0 mm 1 m/S 680 mmHg 32%
    15:00 +28°C° 0 mm 1 m/S 680 mmHg 36%
    16:00 +27°C° 0 mm 1 m/S 680 mmHg 39%
    17:00 +26°C° 0 mm 1 m/S 680 mmHg 42%
    18:00 +24°C° 0 mm 2 m/S 680 mmHg 47%
    19:00 +23°C° 0 mm 2 m/S 680 mmHg 52%
    20:00 +20°C° 0 mm 2 m/S 680 mmHg 57%
    21:00 +19°C° 0 mm 2 m/S 680 mmHg 60%
    22:00 +19°C° 0 mm 2 m/S 680 mmHg 63%
    23:00 +18°C° 0 mm 2 m/S 680 mmHg 65%
    Mehr zeigen